This demonstration page uses our WeatherBlox Daily Observations layout. Learn more.

Left ArrowRight Arrow

40.92501, -98.34201

Hourly Observations for June 2, 2015

Temp ( °F °C ) Dew Point ( °F °C ) Humidity (%) Winds ( mph kmh ) Pressure ( in mb ) Visibility ( mi km ) Precip ( " mm )
12:53 am 00:53 Mostly Cloudy 65 18.3 55 12.8 70 70 SSE 14 22 30.00 1016 10 16 0.00 0.00
1:53 am 01:53 Clear 63 17.2 55 12.8 76 76 SSE 16 26 29.99 1016 10 16 0.00 0.00
2:53 am 02:53 Clear 62 16.7 55 12.8 78 78 SSE 16 26 29.98 1015 10 16 0.00 0.00
3:53 am 03:53 Cloudy 62 16.7 56 13.3 80 80 SSW 13 20 29.99 1016 10 16 0.00 0.00
4:53 am 04:53 Cloudy 62 16.7 56 13.3 80 80 S 12 19 29.97 1015 10 16 0.00 0.00
5:53 am 05:53 Clear 60 15.6 56 13.3 86 86 SSE 17 28 29.94 1014 10 16 0.00 0.00
6:53 am 06:53 Mostly Cloudy 59 15 57 13.9 93 93 SE 17 28 29.91 1013 10 16 0.00 0.00
7:53 am 07:53 Mostly Cloudy 61 16.1 57 13.9 87 87 SSE 21 33 29.91 1013 10 16 0.00 0.00
8:03 am 08:03 Cloudy 61 16 57 14 88 88 SSE 20 31 29.91 1013 10 16 0.00 0.00
8:53 am 08:53 Cloudy 61 16.1 56 13.3 84 84 SSE 21 33 29.95 1014 10 16 0.00 0.00
9:01 am 09:01 Cloudy 61 16.1 57 13.9 87 87 S 17 28 29.94 1014 10 16 0.00 0.00
9:27 am 09:27 Cloudy 61 16.1 56 13.3 84 84 SSE 18 30 29.94 1014 10 16 0.00 0.00
9:53 am 09:53 Cloudy 61 16.1 56 13.3 84 84 SSE 17 28 29.96 1015 10 16 0.00 0.00
10:03 am 10:03 Cloudy 61 16 55 13 83 83 SSE 17 28 29.94 1014 10 16 0.00 0.00
10:53 am 10:53 Cloudy 62 16.7 57 13.9 84 84 SSE 13 20 29.95 1014 10 16 0.00 0.00
11:53 am 11:53 Cloudy 64 17.8 58 14.4 81 81 SSE 15 24 29.93 1014 10 16 0.00 0.00
12:53 pm 12:53 Cloudy 67 19.4 59 15 76 76 SSE 14 22 29.92 1013 10 16 0.00 0.00
1:12 pm 13:12 Cloudy 68 20 60 15.6 76 76 SSE 12 19 29.88 1012 10 16 0.00 0.00
1:53 pm 13:53 Cloudy 70 21.1 61 16.1 73 73 SSE 13 20 29.91 1013 10 16 0.00 0.00
2:53 pm 14:53 Cloudy 74 23.3 62 16.7 67 67 SE 15 24 29.88 1012 10 16 0.00 0.00
3:26 pm 15:26 Partly Cloudy 78 25.6 63 17.2 60 60 SSE 13 20 29.77 1008 10 16 0.00 0.00
3:53 pm 15:53 Mostly Sunny 79 26.1 63 17.2 58 58 SSE 14 22 29.85 1011 10 16 0.00 0.00
4:53 pm 16:53 Mostly Sunny 82 27.8 63 17.2 53 53 S 14 22 29.82 1010 10 16 0.00 0.00
5:53 pm 17:53 Mostly Sunny 83 28.3 64 17.8 53 53 SSE 16 26 29.80 1009 10 16 0.00 0.00
6:53 pm 18:53 Partly Cloudy 83 28.3 65 18.3 55 55 SSE 17 28 29.79 1009 10 16 0.00 0.00
7:53 pm 19:53 Mostly Cloudy 81 27.2 64 17.8 57 57 S 17 28 29.79 1009 10 16 0.00 0.00
8:53 pm 20:53 Partly Cloudy 79 26.1 65 18.3 62 62 SSE 14 22 29.80 1009 10 16 0.00 0.00
9:53 pm 21:53 Partly Cloudy 75 23.9 65 18.3 71 71 SE 17 28 29.81 1010 10 16 0.00 0.00
10:53 pm 22:53 Clear 74 23.3 65 18.3 74 74 SSE 17 28 29.82 1010 10 16 0.00 0.00
11:53 pm 23:53 Clear 72 22.2 65 18.3 79 79 SE 14 22 29.82 1010 10 16 0.00 0.00

Powered by AerisWeather